sat.trackr.live / text

‹ back to catalog

STARLINK-31453

NORAD 59522 · 2024-073M

PAYLOAD ACTIVE UNKNOWN

§ Identity

Operator
Country
US
Launch date
2024-04-17
Launch site
AFETR
Launch vehicle
Mass (kg)
RCS (m²)

Purposes: comms

External: N2YO · Heavens-Above · Gunter

§ Orbital elements

Epoch: 2026-09-21T18:10:27.058368Z

Period
94.27 min
Inclination
43.0017°
Eccentricity
0.0001590
Mean motion
15.27593102 rev/d
Perigee alt
481.9 km
Apogee alt
484.1 km
Semi-major
6,861.1 km
B*
5.6975e-4
RAAN
272.9587°
Arg perigee
277.9255°
Mean anomaly
82.1416°
Rev number
13,636

§ Raw data

STARLINK-314531 59522U 24073M   26264.75725762  .00015455  00000+0  56975-3 0  99942 59522  43.0017 272.9587 0001590 277.9255  82.1416 15.27593102136368

JSON: /api/v1/satellites/59522 · /tle

For live sub-satellite position, see the globe view (requires WebGL).

§ Visibility from observer

Set your observer location to see the next 7 days of passes ≥ 10°. The values pass through the URL so the page stays shareable.

No JS? Fill the form by hand. The geolocation button needs JavaScript.